Location: Devore Heights
(34.2372°N, 117.4156°W)
Time: 11:52:55
(UTC+00:00)

deb Explorer IX - Visible Passes

Search period start: 07 September 2024 00:00
Search period end: 17 September 2024 00:00
Orbit: 507 x 852 km, 38.7° (Epoch: 03 September)

Date Brightness Start Highest point End Pass type
(mag) Time Alt. Az. Time Alt. Az. Time Alt. Az.
07 Sep ? 11:20:53 62° E 11:20:53 62° E 11:24:26 10° ESE visible
07 Sep ? 12:59:54 10° W 13:03:26 24° SW 13:06:44 10° SSE visible
08 Sep ? 11:55:40 45° SW 11:56:02 46° SSW 12:00:04 10° SE visible
09 Sep ? 10:52:13 14° ESE 10:52:13 14° ESE 10:52:46 10° ESE visible
09 Sep ? 12:30:32 18° SW 12:31:29 19° SW 12:34:29 10° S visible
10 Sep ? 04:22:59 10° SSW 04:24:15 16° SSW 04:24:15 16° SSW visible
10 Sep ? 11:27:07 15° SSE 11:27:07 15° SSE 11:27:57 10° SE visible
11 Sep ? 03:16:01 10° SSW 03:20:26 22° SE 03:20:47 22° SE visible
11 Sep ? 04:58:03 10° WSW 04:59:05 15° WSW 04:59:05 15° WSW visible
12 Sep ? 03:50:08 10° SW 03:55:22 46° SSE 03:55:22 46° SSE visible
13 Sep ? 02:42:41 10° SSW 02:47:35 28° SE 02:51:23 15° E visible
13 Sep ? 04:25:15 10° WSW 04:29:40 52° WSW 04:29:40 52° WSW visible
14 Sep ? 03:17:01 10° SW 03:22:45 56° SSE 03:25:24 31° E visible
14 Sep ? 05:00:50 10° W 05:03:40 29° W 05:03:40 29° W visible
15 Sep ? 03:52:07 10° WSW 03:58:01 85° NNW 03:59:10 60° ENE visible
15 Sep ? 05:36:31 10° W 05:37:24 14° WNW 05:37:24 14° WNW visible
16 Sep ? 02:43:36 10° SW 02:49:22 67° SSE 02:54:28 14° ENE visible
16 Sep ? 04:27:35 10° W 04:32:41 56° NW 04:32:41 56° NW visible
